Location: Ladrillo (historical)
(32.8195°N, 117.2231°W)
Time: 21:17:32
(UTC+00:00)

Cosmos 1697 Rocket - Pass Details

Date: 29 October 2020
Orbit: 831 x 845 km, 71.0° (Epoch: 25 November)

Event Time Altitude Azimuth Distance (km) Brightness Sun altitude
Exits shadow 12:32:05 15° 332° (NNW) 2,121 4.5 -20.0°
Maximum altitude 12:36:46 67° 252° (WSW) 913 2.6 -19.0°
Drops below altitude 10° 12:42:21 10° 171° (S) 2,454 5.3 -17.8°
Sets 12:44:47 0° 169° (SSE) 3,386 6.1 -17.3°
